Αρχική σελίδα
METAR-TAF:

METAR-TAF

Αεροδρόμια :

Aklavik, Βορειοδυτικά Εδάφη, Καναδάς

γεωγραφικό πλάτος: 68-13N, γεωγραφικό μήκος: 135-00W, υψόμετρο: 7 μ

Παρών καιρός

Η αναφορά έγινε 20 ώρες και 39 λεπτά πριν, στις 19:00 UTC
Άνεμος 6 kt από Ν
Θερμοκρασία 2°C
Υγρασία 51%
Πίεση 1002 hPa
Ορατότητα: 24.1 χλμ
Διάσπαρτα νέφη σε ύψος 15000 πόδια

METAR: CYKD 171900Z 17006KT 15SM SCT150 02/M07 A2958 RMK AC3 SSS AFT 14UTC 0.0/LAST STFD OBS/NXT 181300Z SLP017

Χρόνος: 09:39 (15:39 UTC)


TAF: λείπει

Μετεωρολογικές αναφορές και προγνώσεις για περισσότερα από 4000 αεροδρόμια (δελτία METAR και TAF).

Οι διαθέσιμοι σταθμοί απεικονίζονται στο χάρτη με κίτρινες και κόκκινες κουκκίδες.

Μετακινήστε το ποντίκι πάνω από τις κουκκίδες για να δείτε το όνομα του σταθμού.

Στη συνέχεια, κάντε κλικ για να δείτε τις μετεωρολογικές αναφορές και τις προγνώσεις καιρού.

Για να αλλάξετε το χάρτη: κάντε κλικ στα πράσινα κουμπιά με τον μαύρο σταυρό για να ζουμάρετε, στο πράσινο κουμπί με την παύλα για να αφαιρέσετε το ζουμ ή στα πράσινα βέλη για να αντιπαραβάλλετε χάρτες.


METAR-TAF: